Dewpoint
-4 -5 -5 -6 -7 -9 -10 -11 -13 -14 -15 -15 -16 -14 -15 -15 -15 -14 -12 -11 -8 -4 -6 -8 -9 -13 -10 -7 -6 -7 -10 -10 -13 -14 -12 -9 -7 -7 -6 -6 -8 -8 -7 -7 -8 -11 -9
-4 -5 -5 -6 -7 -8 -10 -11 -12 -13 -15 -16 -17 -17 -16 -16 -16 -15 -14 -12 -11 -8 -4 -7 -8 -10 -11 -3 -7 -7 -10 -10 -12 -13 -12 -9 -7 -9 -9 -9 -8 -7 -8 -8 -9 -6 -7
-4 -5 -5 -6 -7 -8 -9 -11 -12 -13 -15 -15 -17 -18 -18 -17 -16 -16 -12 -11 -11 -10 -5 -6 -9 -9 -9 -7 -7 -9 -10 -10 -12 -12 -10 -11 -9 -10 -7 -9 -8 -7 -5 -7 -7 -6 -4
-4 -5 -5 -6 -7 -8 -9 -10 -12 -13 -14 -15 -16 -18 -19 -19 -17 -16 -13 -11 -10 -10 -7 -7 -9 -10 -7 -6 -7 -9 -9 -9 -11 -11 -10 -11 -11 -6 -6 -7 -7 -5 -4 -0 -3 -4 -4
-4 -4 -5 -6 -7 -8 -9 -10 -11 -13 -15 -15 -16 -18 -19 -20 -19 -17 -15 -11 -10 -10 -8 -9 -9 -8 -3 -7 -8 -8 -8 -7 -9 -10 -9 -9 -7 -3 -6 -3 -2 -3 -3 -1 -1 -3 -3
-4 -5 -5 -6 -7 -8 -9 -10 -11 -13 -14 -15 -16 -18 -19 -20 -20 -18 -13 -11 -10 -9 -9 -9 -8 -5 -6 -6 -6 -8 -8 -8 -8 -8 -8 -7 -5 -3 -3 -2 -2 -2 -2 -7 -3 -3 -5
-5 -5 -6 -7 -7 -8 -9 -10 -11 -12 -14 -15 -16 -18 -18 -19 -20 -16 -11 -10 -4 -4 -9 -5 -6 -6 -6 -6 -8 -8 -8 -9 -6 -4 -2 -2 -2 -1 -4 -3 -4 -6 -6 -6 -4 -4 -4
-5 -5 -6 -6 -8 -9 -6 -10 -11 -13 -14 -15 -16 -18 -18 -19 -18 -13 -11 -8 -5 -3 -4 -5 -5 -6 -6 -7 -5 -6 -8 -4 -4 -3 -4 -2 -1 -4 -6 -6 -6 -6 -5 -5 -4 -4 -6
-4 -5 -5 -7 -8 -8 -10 -11 -11 -13 -14 -15 -16 -18 -18 -18 -16 -14 -10 -10 -9 -7 -3 -3 -5 -6 -6 -7 -5 -4 -7 -4 -3 -3 -3 -2 -5 -8 -7 -6 -6 -5 -4 -3 -3 -4 -4
-4 -2 -2 -4 -5 -9 -10 -11 -12 -12 -14 -14 -15 -17 -18 -16 -13 -11 -12 -11 -8 -6 -2 -3 -4 -5 -6 -5 -3 -5 -7 -4 -5 -4 -4 -3 -8 -7 -6 -6 -5 -4 -3 -4 -3 -3 -5
-6 -6 -6 -7 -8 -8 -10 -11 -12 -12 -13 -13 -14 -15 -16 -15 -12 -14 -12 -11 -5 -4 -0 -3 -4 -6 -5 -4 -3 -3 -6 -6 -4 -4 -5 -4 -6 -5 -5 -3 -4 -4 -3 -2 -2 0 -2
-6 -6 -7 -8 -8 -9 -9 -10 -11 -11 -12 -12 -13 -14 -15 -12 -12 -13 -12 -7 -4 -0 -3 -3 -4 -4 -4 -4 -4 -4 -3 -5 -4 -4 -5 -5 -6 -4 -3 -3 -3 -3 -2 -1 -0 1 -2
-6 -7 -7 -8 -8 -9 -9 -10 -10 -11 -11 -12 -11 -12 -14 -12 -9 -13 -10 -5 -1 -3 -8 -4 -4 -6 -6 -5 -4 -4 -3 -2 0 -2 -1 -2 -3 -5 -4 -1 -2 -0 -1 -2 0 1 -1
-7 -7 -7 -7 -8 -9 -9 -10 -11 -12 -12 -12 -9 -12 -11 -11 -12 -11 -7 -3 -5 -6 -3 -5 -6 -6 -5 -6 -6 -5 -5 -1 -2 -4 -2 -0 -2 -3 -5 -1 -0 -0 -1 -2 -6 3 1
-7 -7 -6 -7 -7 -9 -11 -14 -14 -15 -14 -12 -8 -9 -9 -8 -11 -7 -2 -1 -5 -4 -5 -6 -6 -8 -6 -4 -6 -7 -3 -0 -1 -1 -3 -2 -2 -5 -4 -3 -2 -0 1 -2 -2 -0 -1
-5 -5 -6 -8 -12 -16 -19 -18 -17 -18 -19 -14 -7 -6 -6 -8 -9 -4 -2 -1 -4 -6 -6 -6 -7 -9 -6 -7 -6 -7 -4 -3 -1 -1 -1 -0 -3 -4 -4 -3 -2 -1 -1 -1 -1 -8 2
3 1 -9 -19 -24 -25 -19 -23 -22 -22 -22 -15 -6 -1 -5 -8 -7 -4 -1 -1 -6 -8 -6 -6 -6 -6 -6 -6 -6 -7 -5 -2 -3 -2 -2 -0 -2 -2 -4 -2 -1 -0 -1 0 1 1 1
-11 -0 -20 -26 -23 -25 -31 -32 -30 -27 -24 -12 -4 -2 -6 -8 -4 -2 -2 -5 -7 -7 -6 -6 -6 -6 -5 -6 -5 -5 -1 -1 -4 -3 1 -1 -1 1 -1 -3 -4 -1 0 -1 -0 -4 -2
-25 -27 -26 -30 -31 -31 -33 -33 -34 -33 -27 -9 -3 -2 -6 -6 -1 -1 -4 -3 -2 -4 -4 -4 -4 -5 -6 -5 -3 -5 -1 -3 -4 -2 -1 -2 -1 -2 -3 -1 -2 -3 -2 0 -3 -3 -2
-13 -22 -24 -30 -31 -32 -32 -32 -32 -28 -25 -10 -3 0 -1 -3 1 -1 -2 -2 1 -0 -2 -2 -3 -5 -4 -5 -5 -4 -1 -1 -2 -1 -1 -1 1 -3 -2 -3 -1 -2 1 -6 -6 -3 -4
-18 -23 -18 -26 -29 -30 -30 -32 -32 -26 -14 -7 -0 1 2 3 1 1 -0 -1 1 2 0 -1 -1 -0 1 1 -1 0 -1 -0 -1 -1 -1 -1 0 1 -1 -1 -1 -3 -4 -4 -3 -5 -2
-19 -17 -25 -23 -24 -24 -24 -28 -31 -29 -11 -3 -2 1 0 0 -0 -1 0 -0 1 -1 0 0 0 -4 -6 -2 -2 -2 -4 -4 -4 -1 -1 -2 -5 -5 -7 -5 -6 -7 -5 -4 -4 -7 -4
-21 -20 -18 -17 -17 -18 -20 -22 -25 -30 -25 -11 -2 -2 -11 -4 -3 -3 -3 -1 -3 -4 -2 -3 -5 -10 -12 -5 -7 -8 -8 -8 -8 -6 -4 -5 -4 -7 -8 -5 -7 -11 -11 -7 -7 -9 -4
-16 -16 -16 -15 -15 -16 -17 -18 -20 -22 -25 -29 -23 -16 -17 -5 -5 -7 -6 -6 -6 -8 -3 -4 -9 -10 -6 -9 -13 -10 -9 -7 -8 -10 -9 -5 -6 -7 -6 -7 -14 -12 -9 -11 -8 -11 -11
-16 -15 -13 -13 -13 -13 -14 -15 -16 -18 -20 -23 -25 -24 -14 -5 -10 -10 -9 -8 -11 -10 -9 -8 -4 -6 -10 -8 -8 -9 -10 -9 -5 -5 -6 -7 -5 -6 -6 -6 -9 -7 -4 -6 -7 -8 -11
-12 -11 -11 -11 -11 -12 -13 -15 -18 -22 -23 -24 -24 -22 -21 -8 -9 -10 -10 -10 -7 -8 -10 -8 -8 -9 -11 -6 -5 -14 -11 -11 -5 -4 -5 -5 -6 -6 -6 -5 -4 -10 -4 -4 -10 -8 -4
-9 -10 -10 -11 -12 -13 -16 -22 -27 -28 -29 -28 -28 -27 -21 -12 -9 -10 -6 -7 -9 -8 -6 -8 -10 -9 -11 -5 -3 -4 -9 -12 -11 -8 -4 -5 -7 -3 -3 -2 -5 -6 -4 -4 -9 -9 -5
-9 -10 -11 -12 -15 -19 -24 -26 -27 -28 -28 -29 -28 -29 -27 -13 -8 -10 -11 -10 -11 -10 -6 -6 -9 -8 -7 -7 -5 -6 -7 -7 -7 -8 -6 -6 -6 -4 -5 -5 -4 -4 -5 -7 -7 -8 -7
-9 -9 -11 -14 -18 -22 -25 -25 -26 -26 -27 -27 -25 -25 -22 -16 -8 -10 -11 -11 -11 -9 -9 -10 -7 -7 -6 -7 -8 -8 -5 -10 -11 -9 -9 -10 -7 -7 -6 -7 -9 -8 -9 -9 -9 -8 -7
Wind_Speed
8 8 8 8 8 8 7 7 7 7 7 7 6 5 6 6 6 5 6 6 6 6 5 4 3 2 3 2 4 2 3 1 2 5 6 8 3 2 1 5 4 2 3 2 3 2 1
8 8 8 9 9 9 9 8 8 7 7 8 8 7 6 6 6 7 6 6 6 5 5 4 4 4 4 2 4 3 2 1 3 5 5 7 2 1 2 3 3 1 3 4 4 4 3
6 6 7 8 9 10 10 10 9 9 8 8 9 8 7 6 6 7 6 5 5 5 5 4 5 5 6 5 4 2 2 2 2 4 5 6 5 3 2 2 3 2 1 2 5 5 2
6 5 5 7 8 9 10 10 11 9 9 9 9 9 7 7 7 7 6 5 5 4 4 4 4 4 3 4 6 5 4 2 3 4 4 3 5 3 2 4 2 1 0 1 2 6 3
7 6 5 6 7 9 10 10 11 11 10 10 9 9 8 7 7 6 6 4 3 2 4 4 4 3 2 2 4 4 4 3 2 3 3 5 5 2 3 3 4 2 3 5 2 7 2
8 7 7 7 6 8 10 11 11 12 12 11 10 9 8 6 6 6 4 2 1 2 4 4 4 2 4 4 2 2 4 5 3 3 4 3 2 3 3 4 4 4 4 3 3 3 2
10 7 7 7 7 8 11 12 12 12 12 12 10 9 7 6 6 4 2 2 0 1 6 2 3 2 4 3 3 2 4 6 5 2 3 3 4 5 8 6 5 2 2 3 2 2 2
10 8 8 7 8 9 11 13 13 12 13 12 11 9 7 6 4 3 3 2 2 2 2 6 6 4 3 3 2 2 5 5 4 3 3 4 5 3 2 1 1 0 1 4 2 2 2
10 9 10 10 11 9 9 11 13 12 12 12 11 9 7 5 4 3 3 2 3 3 2 0 2 2 2 5 2 5 5 4 4 2 5 5 1 1 2 1 1 2 2 2 3 3 1
11 12 11 11 11 10 11 11 13 12 12 11 10 8 6 4 3 3 2 2 3 2 3 1 1 0 2 4 1 2 4 2 1 3 2 1 2 2 1 1 1 2 1 0 2 4 3
11 11 11 11 11 11 12 12 13 12 12 11 10 7 5 4 4 3 2 3 3 2 3 1 2 2 2 3 4 2 3 2 2 0 5 3 1 3 2 0 3 3 0 2 2 4 4
10 10 10 12 12 11 12 13 12 12 12 10 8 6 5 4 5 4 4 5 4 5 5 2 3 2 1 2 1 3 2 2 2 2 5 2 2 3 2 1 2 3 2 5 5 3 2
9 9 9 10 12 12 13 13 12 11 11 10 8 5 4 4 3 4 5 6 4 4 1 1 2 2 0 2 3 3 2 3 2 3 2 3 2 2 3 3 6 3 5 3 5 3 5
8 10 10 10 12 12 13 13 11 11 10 9 7 4 3 2 3 5 8 3 3 1 2 1 1 1 2 1 0 2 3 2 6 2 2 4 5 1 4 1 5 3 5 5 6 3 3
8 10 11 10 12 12 12 12 11 10 9 8 5 3 3 3 4 7 4 3 5 2 1 1 1 2 2 0 2 2 3 3 1 3 6 3 0 0 2 2 3 2 1 3 5 2 3
7 10 12 11 10 11 13 13 11 9 8 6 4 3 2 2 5 7 4 4 3 1 2 0 2 0 3 1 1 4 4 2 1 1 0 1 1 1 1 1 3 3 2 3 3 0 3
14 9 14 11 14 16 15 13 11 9 7 5 4 2 0 4 6 2 3 3 3 2 1 2 1 2 2 1 0 1 3 2 2 1 2 2 3 1 1 3 5 1 1 2 2 4 5
7 3 10 11 11 12 15 14 11 8 6 5 4 1 1 6 3 3 3 3 2 1 4 1 3 2 2 1 2 2 3 1 0 0 2 1 4 3 3 3 2 2 3 3 4 5 1
6 7 9 12 10 13 15 14 8 6 6 6 3 3 2 5 3 2 2 3 3 2 3 2 2 2 1 2 3 2 4 1 1 2 4 3 1 2 3 3 1 1 2 2 3 2 5
10 12 8 12 13 14 18 14 6 3 5 8 4 2 3 3 4 6 4 3 3 2 2 2 2 2 1 1 2 3 2 2 2 3 3 2 1 5 6 4 4 1 4 3 5 3 3
4 8 12 14 14 15 16 15 9 5 2 7 2 1 2 1 4 3 4 2 4 2 2 3 3 3 3 2 2 3 2 3 2 3 2 4 4 3 5 5 4 6 5 6 9 7 6
11 9 11 12 13 15 18 19 17 5 3 3 2 4 6 4 2 4 4 1 3 3 2 1 5 1 2 4 3 5 4 3 2 3 4 2 2 3 5 6 3 5 9 9 8 4 10
10 11 13 16 18 19 19 20 20 16 4 3 6 8 3 4 2 4 0 2 2 5 2 4 3 2 1 2 2 1 2 2 1 2 2 3 3 3 5 5 5 7 9 9 3 3 7
12 13 15 17 19 20 20 20 21 21 18 9 7 4 3 1 3 2 2 3 3 2 4 2 2 2 1 2 7 5 6 6 6 5 4 3 3 3 3 4 3 7 3 4 8 5 3
14 14 16 17 19 20 21 21 20 19 19 17 15 4 3 3 5 3 5 4 5 4 2 3 1 2 1 2 3 4 3 3 1 4 3 5 4 1 2 3 7 3 2 3 5 6 3
14 15 16 17 18 19 19 19 18 18 17 15 17 12 5 11 1 1 3 3 3 2 2 2 2 1 1 3 3 3 4 5 3 2 6 4 5 3 2 2 6 3 1 2 3 4 5
15 16 17 18 18 17 17 17 17 17 17 14 13 11 5 6 3 3 2 3 4 3 2 2 2 2 2 2 2 3 3 2 2 4 4 1 2 6 8 5 8 4 1 3 4 5 4
18 18 18 18 18 17 17 18 18 17 16 14 12 9 4 4 5 3 4 3 3 2 4 5 3 1 3 2 3 3 2 3 2 4 6 6 6 4 2 2 7 1 3 1 2 3 7
19 19 19 18 17 18 19 20 20 19 18 16 11 9 4 2 5 4 4 3 4 5 4 5 1 2 4 3 1 2 1 2 3 3 1 2 6 4 8 4 4 11 18 15 14 9 12
Wind_Direction
355 1 360 0 1 5 12 12 14 14 4 357 357 339 327 323 326 319 300 294 277 267 273 283 274 248 235 237 242 250 307 286 191 177 159 140 191 258 314 160 135 173 165 155 187 172 194
354 354 353 353 353 352 353 358 357 1 359 351 348 347 330 322 321 316 302 287 284 277 265 270 269 237 218 238 249 260 285 247 200 183 166 176 182 262 276 96 128 155 172 185 206 195 209
340 345 347 349 348 345 344 343 347 345 348 348 340 342 330 323 316 317 316 308 298 280 258 266 245 221 227 237 247 250 246 232 206 197 182 202 215 189 349 87 154 134 226 256 208 203 232
325 330 338 343 342 341 339 338 337 337 336 338 337 335 333 323 316 321 316 308 296 276 245 229 209 207 241 231 241 240 214 195 198 194 205 176 172 161 81 129 102 193 209 293 231 156 191
309 310 319 331 338 338 335 334 333 331 329 329 333 330 329 320 317 316 311 312 297 250 216 194 190 201 238 214 227 215 204 199 162 157 148 157 155 118 121 95 26 299 239 209 263 194 136
296 306 315 323 329 335 333 331 331 327 324 327 328 327 323 318 312 308 309 313 339 180 185 194 190 201 217 199 212 209 190 191 163 140 130 142 135 76 29 91 217 217 232 290 215 220 197
294 299 305 316 323 338 334 328 327 327 321 324 325 324 320 318 315 305 279 262 168 203 201 228 185 116 149 186 177 170 163 163 141 175 145 195 93 208 220 226 230 174 200 257 206 218 199
290 295 298 306 317 336 327 319 323 322 319 322 324 322 317 313 305 275 256 231 255 201 250 236 229 211 189 179 142 166 171 172 164 204 159 34 229 228 110 49 263 162 260 278 71 170 200
288 294 303 312 320 323 315 315 316 316 314 318 322 319 310 305 285 262 229 250 256 237 198 42 173 191 209 201 170 184 185 171 189 210 179 169 172 68 67 41 38 17 196 285 216 329 344
287 289 295 296 309 314 313 319 309 313 309 316 318 317 307 299 266 226 234 208 230 225 73 198 176 4 185 171 114 203 185 158 240 203 194 160 18 92 86 172 51 250 320 126 79 69 216
295 295 299 298 301 307 310 309 303 310 307 316 314 313 299 265 243 244 232 187 181 129 5 97 168 168 170 162 144 54 167 157 160 176 84 247 74 69 156 233 320 206 84 91 104 93 55
295 293 295 304 307 308 308 304 303 309 307 311 311 305 281 254 243 230 187 169 146 52 256 136 149 166 123 159 111 111 90 114 115 104 71 87 59 60 101 50 17 161 84 35 48 87 33
293 296 297 303 306 310 306 303 308 309 307 305 307 291 264 242 224 202 173 151 49 140 170 145 145 166 103 155 156 147 144 38 120 110 215 36 25 18 42 61 357 67 67 342 349 2 220
312 306 308 310 311 314 310 307 314 309 305 301 302 268 236 242 217 179 158 65 185 165 55 306 157 135 152 99 124 157 122 119 34 71 104 164 304 98 360 79 177 171 142 157 209 215 257
322 317 316 314 319 317 311 318 318 308 301 295 290 246 224 263 198 171 174 84 210 182 239 12 350 136 201 193 175 129 63 133 47 26 164 134 249 184 57 12 89 223 170 159 102 47 56
326 329 322 322 321 315 330 318 309 303 295 283 258 227 205 178 165 166 86 188 161 45 351 204 180 320 154 145 147 161 162 294 42 26 75 177 96 181 329 85 27 134 247 68 0 249 263
272 296 328 327 341 341 317 312 305 295 283 260 218 211 219 148 149 140 143 147 121 69 65 64 144 115 125 131 160 9 79 1 26 9 57 93 95 284 63 187 184 34 338 19 116 157 186
337 286 318 341 344 319 324 319 305 286 260 220 200 95 148 164 72 69 115 103 104 119 33 62 89 75 98 99 58 95 124 106 181 118 117 71 142 193 248 278 240 274 178 144 134 266 219
7 10 356 356 346 345 342 335 317 278 228 193 180 134 59 178 144 99 161 80 79 81 45 32 99 43 196 121 112 90 101 200 64 69 156 203 315 14 329 1 47 165 207 152 125 81 216
23 11 0 356 4 4 358 0 347 324 217 188 171 104 64 85 75 127 142 134 110 61 79 67 92 71 80 119 65 136 117 185 112 107 108 140 183 174 201 195 136 236 197 180 131 134 209
29 6 11 4 14 19 16 16 13 12 169 177 140 122 123 95 15 89 89 109 130 111 43 56 51 82 133 118 50 115 107 139 119 157 121 110 204 238 252 238 193 208 190 187 191 200 202
39 28 31 35 35 36 34 32 30 33 135 181 134 133 94 79 73 80 53 50 124 129 67 6 133 120 87 144 184 176 154 198 184 225 151 49 266 80 303 277 229 257 234 221 217 238 258
55 53 52 50 49 46 42 40 42 42 63 94 102 114 123 10 37 76 331 93 119 120 42 75 111 94 174 125 28 13 272 283 336 125 118 107 107 63 272 7 356 324 226 198 190 213 198
62 55 51 46 42 40 39 40 41 45 50 77 99 105 104 8 77 137 124 107 123 88 138 130 84 123 167 289 297 274 270 270 262 255 194 118 95 116 254 12 330 246 208 179 193 240 218
57 50 45 40 36 33 32 32 34 39 44 47 57 73 84 97 117 68 113 114 115 94 87 111 99 139 315 9 42 4 347 15 63 10 220 159 124 303 154 208 295 256 227 164 152 278 238
48 41 36 32 30 29 28 29 32 35 37 38 45 50 75 125 255 126 140 160 159 138 15 114 145 190 124 80 79 150 232 235 193 103 24 80 94 124 55 166 243 249 340 139 103 292 333
36 30 27 26 26 26 25 25 27 29 30 29 34 36 53 104 100 138 127 168 145 118 129 152 161 129 145 98 130 183 254 243 194 191 179 141 339 215 232 255 283 279 316 44 95 244 54
26 22 18 19 21 22 22 19 19 20 21 20 22 25 36 115 128 142 161 148 141 167 146 148 73 307 47 90 146 232 138 246 46 168 176 162 155 199 179 221 273 79 68 126 242 43 54
19 13 11 12 13 13 14 15 12 12 11 12 12 12 35 113 104 109 129 151 174 162 152 164 190 146 165 92 21 90 254 54 158 264 358 322 187 191 178 219 25 72 82 52 43 31 9
Height
1511 1510 1509 1508 1507 1505 1503 1502 1500 1499 1498 1497 1496 1495 1494 1494 1493 1491 1492 1491 1492 1491 1492 1491 1491 1490 1493 1492 1492 1491 1493 1492 1493 1495 1494 1494 1496 1496 1497 1497 1498 1501 1500 1501 1502 1502 1502
1511 1510 1509 1507 1506 1505 1504 1502 1501 1499 1497 1496 1495 1493 1493 1492 1492 1491 1491 1491 1489 1488 1489 1490 1489 1490 1492 1493 1490 1490 1491 1492 1493 1494 1492 1494 1495 1496 1495 1496 1498 1499 1500 1501 1502 1501 1501
1510 1509 1508 1506 1506 1505 1503 1502 1500 1499 1497 1495 1495 1493 1492 1491 1491 1490 1488 1487 1486 1487 1488 1487 1488 1488 1490 1490 1489 1490 1490 1491 1492 1493 1492 1493 1494 1496 1495 1495 1497 1499 1502 1501 1500 1500 1501
1509 1507 1506 1505 1504 1504 1503 1501 1500 1498 1496 1494 1493 1492 1490 1489 1489 1487 1486 1486 1485 1486 1486 1487 1487 1487 1488 1487 1489 1489 1489 1490 1491 1492 1492 1492 1492 1494 1494 1497 1497 1501 1502 1507 1499 1499 1500
1508 1507 1505 1504 1503 1502 1502 1500 1498 1497 1495 1494 1491 1490 1488 1488 1486 1486 1485 1484 1484 1484 1485 1486 1487 1487 1487 1487 1488 1488 1489 1489 1491 1491 1491 1492 1493 1494 1495 1500 1507 1504 1511 1506 1501 1498 1499
1506 1505 1504 1503 1501 1500 1499 1499 1497 1495 1494 1492 1490 1488 1487 1486 1485 1484 1483 1483 1483 1484 1484 1485 1486 1489 1487 1486 1486 1486 1488 1489 1490 1490 1491 1492 1493 1496 1499 1504 1522 1505 1506 1498 1498 1499 1500
1505 1504 1503 1502 1500 1498 1497 1496 1495 1493 1492 1490 1488 1486 1485 1484 1483 1482 1482 1483 1486 1485 1484 1483 1483 1483 1484 1484 1485 1486 1487 1489 1490 1491 1492 1491 1498 1503 1497 1497 1496 1494 1497 1499 1498 1498 1499
1503 1502 1501 1500 1498 1496 1495 1495 1493 1492 1490 1489 1486 1484 1483 1482 1481 1481 1481 1481 1481 1483 1482 1481 1481 1482 1483 1484 1485 1486 1487 1489 1489 1491 1490 1495 1500 1493 1490 1492 1494 1494 1497 1502 1500 1499 1500
1502 1501 1500 1499 1496 1494 1494 1492 1491 1490 1488 1486 1484 1483 1481 1480 1480 1480 1480 1480 1480 1481 1481 1481 1481 1482 1483 1485 1484 1484 1486 1486 1487 1488 1490 1495 1493 1491 1491 1494 1495 1496 1499 1499 1502 1499 1499
1500 1499 1498 1497 1495 1493 1490 1489 1489 1487 1486 1484 1482 1480 1479 1479 1481 1478 1479 1479 1479 1480 1485 1483 1482 1481 1483 1483 1484 1484 1484 1486 1486 1488 1487 1492 1493 1491 1493 1495 1498 1500 1502 1500 1500 1513 1524
1498 1497 1496 1495 1493 1491 1489 1488 1487 1485 1484 1482 1481 1479 1478 1477 1477 1477 1479 1478 1478 1480 1509 1483 1482 1483 1482 1483 1483 1484 1484 1484 1486 1486 1489 1494 1494 1494 1496 1499 1500 1499 1500 1501 1502 1518 1521
1496 1495 1493 1492 1490 1488 1487 1486 1485 1483 1482 1480 1478 1477 1476 1476 1476 1476 1476 1477 1480 1491 1505 1482 1480 1481 1482 1481 1482 1483 1484 1485 1486 1486 1489 1496 1496 1498 1501 1502 1501 1501 1502 1506 1513 1524 1550
1493 1492 1491 1489 1488 1486 1485 1483 1481 1480 1479 1478 1476 1475 1474 1474 1475 1474 1475 1477 1490 1499 1476 1482 1480 1479 1479 1481 1482 1483 1485 1488 1494 1493 1497 1497 1500 1501 1501 1503 1503 1502 1513 1537 1535 1544 1530
1492 1490 1488 1486 1485 1483 1482 1481 1478 1477 1476 1475 1474 1473 1472 1473 1472 1472 1474 1479 1485 1475 1480 1479 1479 1480 1481 1481 1483 1483 1485 1493 1492 1491 1508 1506 1506 1504 1504 1505 1509 1506 1515 1535 1530 1518 1507
1490 1489 1487 1485 1483 1481 1479 1477 1475 1474 1473 1472 1471 1471 1471 1471 1470 1471 1474 1490 1482 1481 1482 1482 1480 1480 1483 1482 1482 1484 1492 1498 1497 1497 1501 1505 1497 1506 1505 1506 1508 1507 1516 1509 1529 1525 1540
1488 1487 1485 1482 1481 1479 1475 1474 1472 1471 1470 1470 1469 1469 1470 1469 1469 1471 1473 1478 1482 1483 1483 1483 1480 1480 1483 1482 1484 1485 1490 1497 1497 1497 1497 1498 1505 1505 1507 1507 1508 1510 1510 1517 1529 1528 1523
1485 1484 1484 1481 1477 1474 1473 1471 1470 1469 1468 1468 1468 1468 1469 1468 1469 1470 1480 1481 1483 1483 1483 1483 1483 1482 1483 1485 1485 1485 1492 1500 1497 1497 1496 1500 1508 1509 1508 1510 1512 1515 1516 1514 1513 1517 1526
1485 1483 1483 1480 1477 1475 1472 1469 1466 1465 1466 1466 1467 1468 1468 1468 1471 1474 1479 1480 1482 1483 1483 1483 1484 1484 1485 1486 1487 1488 1493 1496 1497 1497 1498 1503 1511 1516 1504 1515 1515 1511 1511 1512 1517 1520 1531
1486 1484 1482 1480 1478 1475 1471 1466 1464 1463 1463 1464 1464 1466 1467 1467 1474 1480 1480 1481 1483 1483 1485 1485 1486 1486 1486 1487 1493 1489 1495 1497 1497 1498 1501 1503 1510 1521 1501 1515 1513 1516 1517 1514 1523 1525 1532
1486 1485 1484 1481 1478 1474 1470 1465 1462 1461 1461 1463 1464 1468 1468 1468 1470 1472 1477 1480 1485 1485 1485 1485 1486 1486 1486 1487 1488 1492 1495 1497 1497 1498 1499 1499 1504 1508 1512 1501 1509 1516 1511 1523 1521 1539 1526
1489 1488 1485 1482 1479 1475 1471 1466 1462 1460 1460 1463 1463 1467 1468 1474 1473 1473 1474 1479 1483 1485 1486 1486 1488 1488 1490 1493 1491 1492 1493 1497 1497 1497 1498 1501 1512 1501 1498 1498 1502 1505 1513 1517 1514 1511 1507
1491 1490 1488 1484 1481 1477 1473 1468 1464 1461 1461 1462 1462 1465 1469 1473 1474 1475 1477 1481 1483 1487 1487 1487 1489 1489 1489 1492 1491 1494 1493 1495 1494 1497 1499 1502 1512 1516 1523 1498 1508 1513 1505 1502 1503 1512 1499
1494 1492 1490 1486 1483 1478 1474 1471 1466 1463 1462 1461 1463 1465 1466 1476 1476 1479 1482 1483 1485 1486 1490 1488 1489 1491 1491 1494 1494 1495 1495 1496 1497 1499 1502 1510 1515 1529 1522 1503 1507 1508 1498 1497 1501 1503 1491
1496 1494 1491 1488 1485 1481 1478 1473 1470 1467 1465 1464 1464 1465 1466 1481 1479 1481 1481 1482 1485 1487 1489 1490 1490 1491 1494 1493 1493 1493 1494 1494 1496 1499 1501 1512 1518 1525 1533 1518 1535 1490 1488 1489 1487 1493 1492
1499 1497 1494 1491 1487 1484 1480 1477 1475 1472 1469 1468 1466 1466 1468 1480 1480 1482 1482 1484 1486 1487 1488 1489 1491 1492 1492 1492 1495 1496 1498 1495 1497 1500 1500 1502 1509 1525 1532 1532 1495 1477 1482 1488 1489 1487 1486
1500 1498 1495 1492 1489 1485 1483 1481 1478 1475 1473 1472 1469 1469 1469 1472 1482 1481 1482 1483 1487 1489 1490 1490 1490 1491 1492 1493 1498 1512 1506 1491 1497 1502 1501 1503 1506 1520 1530 1533 1523 1484 1480 1480 1482 1499 1484
1502 1499 1497 1493 1490 1488 1486 1484 1481 1478 1475 1474 1472 1471 1471 1472 1479 1480 1481 1483 1483 1485 1491 1490 1490 1491 1492 1497 1502 1505 1500 1490 1501 1495 1511 1515 1520 1511 1506 1507 1499 1483 1482 1482 1502 1498 1485
1504 1501 1499 1496 1493 1491 1488 1485 1482 1479 1477 1476 1474 1472 1472 1472 1478 1478 1479 1481 1483 1484 1489 1490 1493 1492 1494 1503 1501 1503 1509 1503 1506 1494 1505 1509 1517 1511 1512 1519 1510 1484 1484 1490 1491 1487 1487
1506 1503 1500 1497 1495 1492 1489 1486 1483 1481 1478 1476 1474 1472 1472 1472 1477 1478 1479 1480 1482 1483 1485 1487 1489 1488 1489 1495 1500 1501 1501 1509 1510 1511 1491 1504 1494 1500 1497 1491 1487 1487 1489 1490 1489 1488 1487